Window Rock, AZ

11:22 PM MST on January 16, 2017 (GMT -0700)
Window Rock

Weather History for KRQE - November, 2013

Change the Weather History Date:

Tuesday, November 26, 2013

  Actual Average Record
Temperature  
Mean Temperature 30 °F -  
Max Temperature 39 °F 47 °F 69 °F (1954)
Min Temperature 21 °F 21 °F -8 °F (1952)
Degree Days  
Heating Degree Days 35    
Moisture  
Dew Point 26 °F    
Average Humidity 84    
Maximum Humidity 96    
Minimum Humidity 65    
Precipitation  
Precipitation 0.00 in - - ()
Sea Level Pressure  
Sea Level Pressure 30.36 in    
Wind  
Wind Speed 3 mph (ESE)    
Max Wind Speed 8 mph    
Max Gust Speed -    
Visibility 10 miles    
Events      
Averages and records for this station are not official NWS values.
T = Trace of Precipitation, MM = Missing Value Source: NWS Daily Summary

Daily Weather History Graph

Daily Weather History Graph

Search for Another Location

Airport or City:

Trip Planner

Search our weather history database for the weather conditions in past years. The results will help you decide how hot, cold, wet, or windy it might be!

Date:

Astronomy

Nov. 26, 2013 Rise Set
Actual Time 7:03 AM MST 5:04 PM MST
Civil Twilight 6:35 AM MST 5:31 PM MST
Nautical Twilight 6:04 AM MST 6:03 PM MST
Astronomical Twilight 5:33 AM MST 6:33 PM MST
Moon 12:22 AM MST (11/26) 1:00 PM MST (11/26)
Length of Visible Light 10h 56m
Length of Day
10h 00m
Last Quarter, 40% of the Moon is Illuminated
Nov 26
Last Quarter
Dec 2
New
Dec 9
First Quarter
Dec 17
Full
Dec 25
Last Quarter

Hourly Weather History & Observations

Time (MST) Temp. Windchill Dew Point Humidity Pressure Visibility Wind Dir Wind Speed Gust Speed Precip Events Conditions
12:53 AM 25.0 °F - 23.0 °F 92% 30.31 in - Calm Calm - N/A   Clear
1:53 AM 25.0 °F 20.7 °F 24.1 °F 96% 30.31 in - NNW 3.5 mph - N/A   Clear
2:53 AM 23.0 °F 18.4 °F 21.0 °F 92% 30.32 in - SSW 3.5 mph - N/A   Clear
3:53 AM 24.1 °F - 21.9 °F 91% 30.31 in - Calm Calm - N/A   Clear
4:53 AM 23.0 °F - 21.0 °F 92% 30.34 in - Calm Calm - N/A   Clear
5:53 AM 21.9 °F - 19.9 °F 92% 30.36 in - Calm Calm - N/A   Clear
6:53 AM 21.9 °F - 19.9 °F 92% 30.38 in - Calm Calm - N/A   Clear
7:53 AM 21.0 °F 14.6 °F 19.9 °F 96% 30.40 in - South 4.6 mph - N/A   Clear
8:53 AM 28.0 °F - 26.1 °F 92% 30.40 in - Calm Calm - N/A   Clear
9:53 AM 35.1 °F - 28.9 °F 78% 30.40 in - Calm Calm - N/A   Clear
10:53 AM 37.0 °F 31.0 °F 30.0 °F 76% 30.39 in - ESE 8.1 mph - N/A   Partly Cloudy
11:25 AM 37.9 °F 33.5 °F 30.9 °F 76% 30.41 in - ESE 5.8 mph - N/A   Mostly Cloudy
11:53 AM 37.9 °F 34.4 °F 30.0 °F 73% 30.37 in - Variable 4.6 mph - N/A   Mostly Cloudy
12:53 PM 39.0 °F 36.8 °F 28.9 °F 67% 30.34 in 10.0 mi Variable 3.5 mph - N/A   Overcast
1:13 PM 39.0 °F 35.7 °F 28.0 °F 65% 30.36 in 10.0 mi East 4.6 mph - N/A   Scattered Clouds
1:53 PM 39.0 °F 34.0 °F 28.0 °F 65% 30.33 in 10.0 mi SE 6.9 mph - N/A   Clear
2:53 PM 39.9 °F 35.8 °F 28.9 °F 65% 30.32 in 10.0 mi SE 5.8 mph - N/A   Clear
3:53 PM 39.9 °F 36.7 °F 28.9 °F 65% 30.32 in 10.0 mi ENE 4.6 mph - N/A   Clear
4:53 PM 37.0 °F 31.0 °F 28.9 °F 73% 30.34 in 10.0 mi ENE 8.1 mph - N/A   Clear
5:53 PM 33.1 °F 26.1 °F 28.9 °F 85% 30.37 in 10.0 mi East 8.1 mph - N/A   Clear
6:53 PM 32.0 °F 24.8 °F 28.0 °F 85% 30.38 in 10.0 mi ENE 8.1 mph - N/A   Clear
7:53 PM 28.9 °F - 27.0 °F 92% 30.40 in 9.0 mi Calm Calm - N/A   Clear
8:53 PM 28.0 °F - 26.1 °F 92% 30.39 in 10.0 mi Calm Calm - N/A   Clear
9:53 PM 27.0 °F 23.0 °F 25.0 °F 92% 30.37 in 10.0 mi South 3.5 mph - N/A   Clear
10:53 PM 26.1 °F - 25.0 °F 96% 30.36 in 9.0 mi Calm Calm - N/A   Clear
11:53 PM 25.0 °F - 23.0 °F 92% 30.35 in 6.0 mi Calm Calm - N/A   Clear